Location: Kellogg
(38.0159°N, 90.0546°W)
Time: 15:50:05
(UTC+00:00)

Vanguard 1 Rocket - Pass Details

Date: 16 September 2024
Orbit: 650 x 4218 km, 34.3° (Epoch: 07 October)

Event Time Altitude Azimuth Distance (km) Brightness Sun altitude
Rises 06:34:55 0° 191° (S) 4,416 - -48.5°
Reaches altitude 10° 06:38:14 10° 176° (S) 3,870 - -48.3°
Maximum altitude 06:46:13 24° 128° (SE) 3,871 - -47.9°
Exits shadow 06:48:31 23° 115° (ESE) 4,182 10.6 -47.7°
Drops below altitude 10° 06:58:25 10° 84° (E) 6,167 11.8 -47.0°
Sets 07:05:46 0° 74° (ENE) 7,771 12.6 -46.4°
